LIEELIRS

Guest
Details From LIEE - Cagliari Elmas
To LIRS - GROSSETO
Flight Number -
Tags generated
Created
Modified
Stats Distance 231 nm / 427 km
Max Altitude 27,300 ft / 8,321 m
Waypoints 5
Social Downloads 9
Likes 0
Share

Download

Looking for another format? Having issues loading an existing format? Contact us
Advertisement - Login to hide

Notes

Basic altitude profile: - Ascent Rate: 2500ft/min - Ascent Speed: 250kts - Cruise Altitude: 11000ft - Cruise Speed: 320kts - Descent Rate: 1500ft/min - Descent Speed: 250kts Options: - Use NATs: yes - Use PACOTS: yes - Use low airways: yes - Use high airways: yes

Route

LIEE SUKUN 4100N01000E RUXOP LIRS

ID Type Via Altitude (ft/m) Position (lat/lon) Dist (leg/tot) Name
O LIEE APT - 0 / 0 39.25147 / 9.05429 - / 0 nm Cagliari Elmas
SUKUN FIX - 27,300 / 8,321 40.75056 / 9.91111 98 / 98 nm
4100N01000E LATLON - 25,000 / 7,620 41.00000 / 10.00000 15 / 113 nm
RUXOP FIX - 21,800 / 6,645 41.16917 / 10.00944 10 / 123 nm
O LIRS APT - 0 / 0 42.76028 / 11.07198 106 / 230 nm GROSSETO

Altitude Profile

Advertisement - Login to hide

Weather


0- 5 10 15 20 25 30 35+ Temperature / °C

Clouds and Precipitation
Forecast for 2021-09-24 06:00 UTC. Updated 21 minutes ago

Ground ~20,000 ft ~40,000 ft Winds

LIEE

Details ICAO LIEE (CAG)
Name Cagliari-Elmas "Mario Mameli"
Region Italy
Timezone Europe/Rome (UTC+2.0)
Stats Elevation 13 ft / 4 m (AMSL)
Location 39.251500° 9.054300°
Runways 1
Magnetic Variation 2.680° E

METAR

LIEE 240320Z 13008KT CAVOK 23/18 Q1017

Decode

TAF

TAF LIEE 232300Z 2400/2424 16012KT 9999 SCT040= TAF LIEO 232300Z 2400/2424 VRB05KT 9999 SCT040 BECMG 2408/2410 12010KT BECMG 2417/2419 VRB05KT

Decode

Departure Runways

ID Width Length Bearing (true/mag) Surface Threshold Overrun Markings Lighting
14 148 ft / 45 m 9,209 ft / 2,807 m 138.10° / 135.42° ASPHALT 0 ft / 0 m 0 ft / 0 m PREC-APP CENTERLINE EDGE THRESHOLD REIL-OMNI
32 148 ft / 45 m 9,209 ft / 2,807 m 318.11° / 315.43° ASPHALT 0 ft / 0 m 0 ft / 0 m PREC-APP CENTERLINE EDGE THRESHOLD ALSF-II REIL-OMNI

LIRS

Details ICAO LIRS (GRS)
Name Grosseto-Maremma Air Base "Conrado Baccarini"
Region Italy
Timezone Europe/Rome (UTC+2.0)
Stats Elevation 15 ft / 5 m (AMSL)
Location 42.760400° 11.071700°
Runways 2
Magnetic Variation 3.216° E

METAR

LIRS 240255Z 04003KT CAVOK 13/11 Q1019

Decode

TAF

Not found

Destination Runways

ID Width Length Bearing (true/mag) Surface Threshold Overrun Markings Lighting
03L 148 ft / 45 m 9,822 ft / 2,994 m 30.87° / 27.66° ASPHALT 318 ft / 97 m 0 ft / 0 m PREC-APP CENTERLINE EDGE THRESHOLD CALVERT TDZ REIL-OMNI
03R 79 ft / 24 m 7,736 ft / 2,358 m 30.86° / 27.64° ASPHALT 0 ft / 0 m 0 ft / 0 m PREC-APP
21L 79 ft / 24 m 7,736 ft / 2,358 m 210.87° / 207.65° ASPHALT 0 ft / 0 m 0 ft / 0 m PREC-APP
21R 148 ft / 45 m 9,822 ft / 2,994 m 210.88° / 207.67° ASPHALT 0 ft / 0 m 0 ft / 0 m APP CENTERLINE EDGE THRESHOLD REIL-OMNI